TimeMST,TemperatureF,Dew PointF,Humidity,Sea Level PressureIn,VisibilityMPH,Wind Direction,Wind SpeedMPH,Gust SpeedMPH,PrecipitationIn,Events,Conditions,WindDirDegrees,DateUTC
12:53 AM,35.1,19.9,54,29.46,10.0,SSE,9.2,-,N/A,,Scattered Clouds,160,2013-12-03 07:53:00
1:53 AM,39.0,19.0,45,29.46,10.0,SSE,9.2,-,N/A,,Scattered Clouds,160,2013-12-03 08:53:00
2:53 AM,44.1,19.0,37,29.44,10.0,SW,4.6,-,N/A,,Scattered Clouds,220,2013-12-03 09:53:00
3:53 AM,46.9,19.9,34,29.40,10.0,NE,12.7,18.4,N/A,,Scattered Clouds,50,2013-12-03 10:53:00
4:53 AM,39.0,19.9,46,29.43,10.0,SSW,5.8,-,N/A,,Scattered Clouds,200,2013-12-03 11:53:00
5:53 AM,42.1,19.9,41,29.41,10.0,SSE,11.5,-,N/A,,Scattered Clouds,160,2013-12-03 12:53:00
6:53 AM,45.0,19.0,36,29.40,10.0,South,13.8,-,N/A,,Mostly Cloudy,190,2013-12-03 13:53:00
7:53 AM,48.9,18.0,29,29.42,10.0,South,13.8,-,N/A,,Mostly Cloudy,190,2013-12-03 14:53:00
8:53 AM,48.0,19.0,32,29.42,10.0,South,13.8,-,N/A,,Mostly Cloudy,180,2013-12-03 15:53:00
9:53 AM,54.0,19.9,26,29.38,10.0,SSW,8.1,-,N/A,,Mostly Cloudy,200,2013-12-03 16:53:00
10:53 AM,54.0,19.9,26,29.37,10.0,WSW,10.4,-,N/A,,Mostly Cloudy,250,2013-12-03 17:53:00
11:53 AM,55.9,21.9,27,29.35,10.0,WNW,9.2,-,N/A,,Mostly Cloudy,290,2013-12-03 18:53:00
12:21 PM,42.8,28.4,57,29.48,10.0,North,24.2,-,N/A,,Mostly Cloudy,10,2013-12-03 19:21:00
12:53 PM,37.0,26.1,65,29.46,10.0,NNE,24.2,32.2,N/A,,Mostly Cloudy,30,2013-12-03 19:53:00
1:53 PM,30.0,19.9,66,29.50,10.0,NNE,23.0,31.1,N/A,,Mostly Cloudy,20,2013-12-03 20:53:00
2:50 PM,26.6,17.6,69,29.57,10.0,NNE,16.1,-,N/A,,Overcast,30,2013-12-03 21:50:00
2:53 PM,27.0,17.1,66,29.56,10.0,NNE,16.1,-,N/A,,Overcast,30,2013-12-03 21:53:00
3:53 PM,25.0,15.1,66,29.59,10.0,NE,11.5,-,N/A,,Overcast,40,2013-12-03 22:53:00
4:53 PM,21.9,12.9,68,29.65,10.0,North,13.8,-,N/A,,Overcast,10,2013-12-03 23:53:00
5:53 PM,19.0,10.9,71,29.70,10.0,North,16.1,-,0.00,,Overcast,10,2013-12-04 00:53:00
6:53 PM,17.1,10.0,74,29.72,4.0,North,16.1,-,0.00,Snow,Light Snow,360,2013-12-04 01:53:00
7:43 PM,15.8,10.4,79,29.71,2.5,NNE,16.1,-,0.00,Snow,Light Snow,20,2013-12-04 02:43:00
7:46 PM,15.8,10.4,79,29.71,2.5,North,15.0,-,0.00,Snow,Light Snow,10,2013-12-04 02:46:00
7:50 PM,15.8,12.2,86,29.71,1.2,North,16.1,-,0.00,Snow,Light Snow,10,2013-12-04 02:50:00
7:53 PM,15.1,12.0,88,29.74,1.2,North,16.1,-,0.00,Snow,Light Snow,10,2013-12-04 02:53:00
8:53 PM,14.0,10.0,84,29.75,1.2,North,12.7,-,0.00,Snow,Light Snow,10,2013-12-04 03:53:00
9:06 PM,12.2,10.4,92,29.71,1.2,NNE,12.7,-,0.00,Snow,Light Snow,20,2013-12-04 04:06:00
9:28 PM,12.2,8.6,85,29.72,1.2,North,15.0,-,0.00,Snow,Light Snow,10,2013-12-04 04:28:00
9:44 PM,12.2,8.6,85,29.72,2.0,North,11.5,-,0.00,Snow,Light Snow,10,2013-12-04 04:44:00
9:53 PM,12.0,8.1,84,29.73,2.0,North,12.7,-,0.00,Snow,Light Snow,10,2013-12-04 04:53:00
10:53 PM,12.0,8.1,84,29.75,2.0,North,8.1,-,0.00,Snow,Light Snow,350,2013-12-04 05:53:00
11:14 PM,10.4,8.6,92,29.73,2.0,North,10.4,-,0.01,Snow,Light Snow,350,2013-12-04 06:14:00
11:53 PM,10.9,6.1,81,29.74,2.0,North,11.5,-,0.01,Snow,Light Snow,10,2013-12-04 06:53:00